{"data":{"norad_id":28470,"intl_designator":"2004-044A","name":"JB-3 3 (ZY 2C)","alt_names":[],"object_type":"PAYLOAD","status":"ACTIVE","operator":null,"country":"PRC","launch_date":"2004-11-06","launch_site_code":"TAISC","launch_vehicle":null,"mission":null,"orbit_class":"UNKNOWN","rcs_meters":4.419,"size_class":null,"mass_kg":null,"dimensions":null,"purposes":[],"wikipedia_slug":null,"has_3d_model":false,"image_url":null,"decayed_at":null,"tle_current":{"epoch":"2026-09-19T21:12:10.664064Z","epoch_age_seconds":67757,"freshness":"FRESH","line1":"1 28470U 04044A   26262.88345676  .00002627  00000+0  12394-3 0  9996","line2":"2 28470  97.2893  53.1354 0031369 247.9508 111.8395 15.19901837202162","mean_motion":15.19901837,"eccentricity":0.0031369,"inclination_deg":97.2893,"raan_deg":53.1354,"arg_perigee_deg":247.9508,"mean_anomaly_deg":111.8395,"bstar":0.00012394,"rev_number":20216,"period_min":94.742960692928,"perigee_km":484.54173295476,"apogee_km":527.7322912519,"semimajor_km":6884.2740121033,"source":"CELESTRAK","updated_at":"2026-09-20T09:00:13.629072Z"}}}